Location: Unspecified
(44.4377°N, 88.0525°W)
Time: 18:15:43
(UTC-05:00)

Okean 3 - Pass Details

Date: 26 April 2019
Orbit: 576 x 602 km, 82.5° (Epoch: 26 May)

Event Time Altitude Azimuth Distance (km) Brightness Sun altitude
Exits shadow 01:35:22 28° 356° (N) 1,112 5.3 -31.2°
Drops below altitude 10° 01:37:28 10° 4° (N) 1,918 6.9 -31.1°
Sets 01:39:40 0° 7° (N) 2,818 8.1 -31.0°
